Lid_Strength_Index
3 5 7 8 13 14 16 13 12 12 12 11 11 12 10 12 10 13 8 6 5 5 4 3 2 2 2 2 2 2 2 2 2 2 2 1 1 0 -0 -1 -1 -1 -1 -1 -1 -1 -1 -1 -1
5 4 7 11 15 18 16 14 13 11 11 11 12 14 14 14 12 10 8 6 6 5 5 4 2 2 2 2 3 3 3 3 2 2 2 2 2 2 2 2 2 -0 -1 -1 -1 -1 -1 -1 -1
7 5 9 12 16 17 16 14 14 11 11 11 13 12 12 12 11 9 8 6 6 6 5 4 2 3 3 3 3 3 3 3 3 3 2 2 3 3 3 3 3 2 1 -0 -1 -2 -1 -1 -1
7 8 11 14 16 15 15 12 11 11 11 11 12 13 11 9 10 10 7 7 7 6 5 3 3 3 3 3 2 2 3 3 3 3 2 2 2 2 3 3 3 3 3 2 2 1 0 -0 -0
8 12 15 16 16 15 13 11 10 11 11 12 12 14 12 9 7 7 7 8 8 7 6 6 3 3 3 2 2 2 2 1 1 2 2 2 2 2 2 3 2 2 2 2 2 3 3 2 1
10 12 17 17 17 15 13 12 11 11 12 12 12 13 11 10 7 7 7 8 8 8 7 6 4 3 3 2 2 2 2 2 3 3 3 4 3 3 3 3 2 2 2 1 1 1 2 3 3
12 14 16 17 17 15 13 13 13 12 12 13 12 13 12 11 9 9 9 9 8 8 8 8 6 5 3 4 4 4 4 4 4 4 5 5 5 5 5 4 3 3 2 2 2 1 1 1 2
11 13 16 17 16 15 14 14 14 13 14 12 11 13 14 11 10 9 10 10 10 10 10 10 10 10 10 8 5 5 5 5 6 6 6 6 7 6 6 5 4 4 3 3 3 3 3 3 3
12 15 17 16 16 15 14 14 14 14 14 14 13 11 10 10 10 11 11 11 11 10 11 11 11 11 10 9 8 7 6 6 7 8 6 8 10 9 9 6 5 5 5 5 4 4 4 5 5
14 16 15 16 16 16 14 14 15 15 15 15 13 11 10 10 11 12 12 12 12 12 11 11 11 11 11 9 10 10 9 10 10 10 10 9 10 9 9 8 7 7 7 6 5 5 6 7 8
13 15 15 15 13 14 14 14 14 15 15 14 14 12 11 11 11 11 11 11 11 11 10 10 10 10 11 10 11 11 10 11 11 11 10 10 11 11 11 11 11 11 9 10 9 9 9 9 9
15 14 13 13 13 14 14 13 14 15 14 13 13 10 10 11 11 11 11 11 11 11 10 10 10 10 11 11 11 11 11 11 12 11 10 11 12 12 12 12 12 12 11 11 11 10 10 10 9
14 13 12 13 13 14 13 15 14 14 13 13 11 10 10 11 11 10 10 10 10 10 10 10 10 10 10 11 11 11 12 12 12 12 11 11 12 12 12 12 12 12 11 11 11 11 10 10 10
13 13 13 12 13 12 14 15 14 14 13 13 11 10 10 10 10 10 10 10 10 9 10 10 10 10 10 11 11 11 12 12 12 12 12 11 11 12 12 12 12 12 12 11 11 11 11 11 10
13 15 14 14 13 13 13 15 15 14 13 13 12 10 10 10 10 10 9 9 9 9 9 10 10 10 11 11 11 11 11 11 12 12 12 12 11 12 12 12 12 12 12 11 11 11 11 11 10
15 15 18 14 14 13 15 16 14 14 14 13 13 13 11 10 9 9 9 9 9 9 10 10 9 10 11 12 12 12 12 12 12 12 12 12 11 12 12 12 13 12 11 11 11 11 11 11 11
16 19 17 16 13 14 15 16 14 14 14 14 14 13 13 12 11 10 9 9 9 9 10 10 10 11 11 12 12 12 12 12 12 12 13 12 12 11 12 12 12 11 11 11 11 11 11 12 11
20 20 18 18 16 15 16 15 13 13 13 14 14 14 13 13 11 10 10 10 9 10 10 11 11 11 11 12 13 13 13 13 13 13 13 12 12 12 12 12 12 11 12 12 12 12 11 12 12
18 19 19 17 16 17 17 17 15 13 15 15 14 14 14 14 12 11 11 10 11 11 11 11 11 11 12 13 13 14 14 13 13 13 12 12 12 11 11 12 12 12 12 12 12 12 12 12 11
17 19 20 17 16 17 18 18 15 15 15 16 15 15 15 14 13 12 12 11 11 11 11 11 11 11 12 12 13 13 14 14 13 13 12 12 12 11 11 12 12 12 12 12 12 12 12 12 11
18 19 19 19 18 19 20 20 18 17 15 15 15 15 16 14 13 13 12 12 13 12 12 12 11 11 12 12 12 13 13 13 14 13 13 12 11 11 11 12 12 12 12 12 12 12 12 13 11
19 17 17 18 22 25 20 25 19 19 17 16 15 15 15 14 13 13 12 13 13 12 12 12 11 11 11 11 12 13 13 14 14 14 13 12 11 11 11 11 12 12 12 12 12 11 11 11 11
17 16 17 19 25 24 22 26 20 18 17 16 15 15 15 14 13 12 12 12 12 12 12 12 12 11 11 12 12 13 13 14 14 14 13 12 12 11 11 11 12 12 11 11 11 11 11 10 10
14 17 18 20 25 26 26 25 19 17 16 16 15 14 13 13 13 12 12 12 12 12 12 12 12 11 11 11 12 12 13 14 14 13 13 13 13 12 12 11 11 10 10 10 10 9 9 9 9
16 22 26 25 26 24 29 24 18 15 15 15 14 14 13 13 13 13 13 12 13 13 13 13 13 12 11 12 12 13 14 14 14 13 13 13 13 13 12 11 10 10 9 9 9 9 9 9 9
17 22 24 29 27 24 28 24 17 15 15 14 14 13 13 13 13 13 12 12 13 13 13 13 13 13 12 13 13 14 13 13 13 13 13 13 13 12 11 11 9 9 9 9 9 10 9 9 9
18 24 19 27 33 29 24 20 16 15 17 15 14 14 13 13 13 13 12 12 13 13 13 13 13 13 13 13 14 14 13 13 13 13 13 13 12 11 11 11 10 10 10 10 10 10 10 9 9
18 17 23 25 28 31 27 29 19 17 17 17 16 15 14 14 13 13 12 12 12 12 13 13 13 13 13 13 14 14 13 13 13 13 13 13 12 11 11 11 10 10 10 10 9 9 9 9 8
21 23 23 23 22 27 30 23 19 18 16 18 17 15 16 15 14 13 13 12 12 13 13 13 13 13 14 14 14 13 13 13 13 13 13 12 11 11 11 11 11 11 10 10 10 9 9 9 9
17 21 19 23 26 26 24 22 17 18 23 24 18 17 18 17 15 15 14 14 13 13 13 13 14 14 14 14 13 13 13 13 14 13 13 12 11 11 11 11 11 11 11 10 10 10 10 10 10